• MPC Preparation (Info)

  • MPEC 2016-T18 : 2016 TM

    The following Minor Planet Electronic Circular may be linked-to from your own Web pages, but must not otherwise be redistributed electronically.

    A form allowing access to any MPEC is at the bottom of this page.


    Read MPEC 2016-T17 Read MPEC 2016-T19


    M.P.E.C. 2016-T18                                Issued 2016 Oct. 3, 03:40 UT
    
         The Minor Planet Electronic Circulars contain information on unusual
             minor planets and routine data on comets.  They are published
        on behalf of Division F of the International Astronomical Union by the
              Minor Planet Center, Smithsonian Astrophysical Observatory,
                              Cambridge, MA 02138, U.S.A.
    
                 Prepared using the Tamkin Foundation Computer Network
    
                                  MPC@CFA.HARVARD.EDU
                URL https://www.minorplanetcenter.net/    ISSN 1523-6714
    
                                        2016 TM
    
    Observations:
         K16T00M* C2016 10 02.12337 22 10 28.11 -00 22 20.7          19.2 VqET018G96
         K16T00M  C2016 10 02.13494 22 10 54.43 -00 20 11.7          18.5 VqET018G96
         K16T00M  C2016 10 02.14073 22 11 07.45 -00 19 07.4          18.4 VqET018G96
         K16T00M  C2016 10 02.19825 22 13 14.87 -00 08 23.8          19.3 RoET018926
         K16T00M  C2016 10 02.19933 22 13 17.20 -00 08 11.5          20.5 RoET018926
         K16T00M  C2016 10 02.20039 22 13 19.53 -00 08 00.6          19.3 RoET018926
         K16T00M HC2016 10 02.20068 22 13 20.63 -00 08 03.9          18.9 VoET018691
         K16T00M HC2016 10 02.20676 22 13 34.09 -00 06 56.9          19.4 VoET018691
         K16T00M HC2016 10 02.21280 22 13 47.26 -00 05 51.4          19.2 VoET018691
         K16T00M  C2016 10 02.21422022 13 46.97 -00 05 59.8          19.1 VtET018H01
         K16T00M  C2016 10 02.22086922 14 01.49 -00 04 47.8          19.4 VtET018H01
         K16T00M  C2016 10 02.22788222 14 16.78 -00 03 31.9          19.1 VtET018H01
         K16T00M  C2016 10 02.23533322 14 33.02 -00 02 11.6          19.1 VtET018H01
         K16T00M  C2016 10 02.23793 22 14 41.14 -00 01 25.8          18.8 VqET018I52
         K16T00M  C2016 10 02.23823 22 14 41.79 -00 01 22.4          18.8 VqET018I52
         K16T00M  C2016 10 02.23853 22 14 42.46 -00 01 19.5          18.9 VqET018I52
         K16T00M  C2016 10 02.23884 22 14 43.11 -00 01 15.7          18.6 VqET018I52
         K16T00M  C2016 10 02.25943 22 15 27.74 +00 02 24.6                qET018G96
         K16T00M  C2016 10 02.26087 22 15 30.84 +00 02 40.4          18.8 VqET018G96
         K16T00M  C2016 10 02.26237 22 15 34.13 +00 02 56.2          18.5 VqET018G96
         K16T00M  C2016 10 02.26377 22 15 37.12 +00 03 11.1          18.9 VqET018G96
         K16T00M  C2016 10 02.27856 22 16 09.20 +00 05 49.1          18.4 VqET018G96
         K16T00M  C2016 10 02.28694 22 16 27.31 +00 07 17.7          18.8 VqET018G96
         K16T00M  C2016 10 02.29521 22 16 45.25 +00 08 45.3          18.8 VqET018G96
         K16T00M  C2016 10 02.30355 22 17 03.33 +00 10 13.5          18.7 VqET018G96
         K16T00M  C2016 10 02.34715 22 18 38.07 +00 18 01.2          19.4 RoET018926
         K16T00M  C2016 10 02.34822 22 18 40.42 +00 18 12.3          19.4 RoET018926
         K16T00M  C2016 10 02.34929 22 18 42.77 +00 18 23.3          19.5 RoET018926
         K16T00M  C2016 10 02.35036 22 18 45.10 +00 18 34.6          19.6 RoET018926
         K16T00M  C2016 10 02.35141 22 18 47.42 +00 18 45.4          19.5 RoET018926
         K16T00M  C2016 10 02.35248 22 18 49.74 +00 18 56.4          19.5 RoET018926
         K16T00M KC2016 10 02.73303 22 33 51.66 +01 18 39.7          18.8 V ET018L04
         K16T00M KC2016 10 02.74423 22 34 13.25 +01 20 23.8          19.0 V ET018L04
         K16T00M KC2016 10 02.82360 22 36 51.96 +01 32 51.4          18.7 VqET018C77
         K16T00M KC2016 10 02.82372 22 36 54.55 +01 31 50.1                qET018J95
         K16T00M KC2016 10 02.82676 22 37 00.29 +01 32 18.1                qET018J95
         K16T00M KC2016 10 02.82877 22 37 01.55 +01 33 38.5          19.0 VqET018C77
         K16T00M KC2016 10 02.83010 22 37 06.56 +01 32 48.5          18.5 RqET018J95
         K16T00M KC2016 10 02.83400 22 37 11.20 +01 34 25.4          19.3 VqET018C77
         K16T00M KC2016 10 02.96099 22 41 04.23 +01 53 10.2          19.0 VqET018958
         K16T00M KC2016 10 02.96681 22 41 14.52 +01 54 00.2          18.7 VqET018958
         K16T00M KC2016 10 02.97268 22 41 24.84 +01 54 50.4          18.7 VqET018958
         K16T00M KC2016 10 03.03676 22 43 15.28 +02 03 30.8                qET018204
         K16T00M KC2016 10 03.04379 22 43 27.96 +02 04 28.5          19.2 RqET018204
         K16T00M KC2016 10 03.05090 22 43 40.77 +02 05 27.2                qET018204
    
    Observer details:
    204 Schiaparelli Observatory.  Observer L. Buzzi.  0.60-m f/4.64 reflector
        + CCD.
    691 Steward Observatory, Kitt Peak.  Observer A. F. Tubbiolo.  0.9-m f/3
        reflector + CCD.
    926 Tenagra II Observatory.  Observers M. Schwartz, P. R. Holvorcem.  Measurer
        M. Schwartz.  0.81-m f/7 Ritchey-Chretien + CCD.
    958 Observatoire de Dax.  Observers P. Dupouy, J. B. de Vanssay.  Measurer
        P. Dupouy.  0.43-m f/2.7 reflector + CCD.
    C77 Bernezzo Observatory.  Observer A. Mantero.  0.25-m f/4 reflector + CCD.
    G96 Mt. Lemmon Survey.  Observer A. D. Grauer.  Measurers E. J. Christensen,
        D. C. Fuls, A. R. Gibbs, A. D. Grauer, J. A. Johnson, R. A. Kowalski,
        S. M. Larson, G. J. Leonard, R. G. Matheny, R. L. Seaman, F. C. Shelly.
        1.5-m reflector + 10K CCD.
    H01 Magdalena Ridge Observatory, Socorro.  Observers W. H. Ryan, E. V. Ryan.
        Measurer W. H. Ryan.  2.4-m f/8.9 reflector + CCD.
    I52 Steward Observatory, Mt. Lemmon Station.  Observer G. J. Leonard.
        Measurers E. J. Christensen, D. C. Fuls, A. R. Gibbs, A. D. Grauer,
        J. A. Johnson, R. A. Kowalski, S. M. Larson, G. J. Leonard, R. G. Matheny,
        R. L. Seaman, F. C. Shelly.  1.0-m reflector + CCD.
    J95 Great Shefford.  Observer P. Birtwhistle.  0.40-m f/6.0 Schmidt-Cassegrain
        + CCD.
    L04 ROASTERR-1 Observatory, Cluj-Napoca.  Observer L. Hudin.  0.3-m f/5.0
        reflector + CCD.
    
    Orbital elements:
    2016 TM                                                  Earth MOID = 0.0016 AU
    Epoch 2016 July 31.0 TT = JDT 2457600.5                 MPC
    M 347.68248              (2000.0)            P               Q
    n   0.80962589     Peri.  323.43798     +0.72146220     +0.69245322
    a   1.1401092      Node   352.73719     -0.63359230     +0.65960288
    e   0.1633204      Incl.    0.41335     -0.27937983     +0.29228854
    P   1.22           H   27.4           G   0.15           U   6
    Residuals in seconds of arc
    161002 G96 (2.5-  0.9-)   161002 I52  0.2+  0.1-    161002 926  0.3-  0.1+
    161002 G96  0.1+  0.4-    161002 I52  0.1-  0.3+    161002 L04  1.2+  0.2-
    161002 G96  0.1+  0.2-    161002 G96  0.1+  0.2-    161002 L04  0.3+  0.2-
    161002 926  0.4+  0.3+    161002 G96  0.1-  0.2+    161002 C77  0.6-  0.1+
    161002 926  0.0   0.8+    161002 G96  0.5+  0.1-    161002 J95  0.1-  0.6-
    161002 926  0.2+  0.2+    161002 G96  0.1-  0.1-    161002 J95  0.0   0.1-
    161002 691  1.1-  0.4-    161002 G96  0.8+  0.3+    161002 C77  0.1-  0.4+
    161002 691 (1.7+  0.4+)   161002 G96  0.1+  0.1-    161002 J95  0.3-  0.1+
    161002 691 (1.8+  0.4+)   161002 G96  0.3+  0.0     161002 C77  0.1+  0.1+
    161002 H01  0.2+  0.2-    161002 G96  0.1+  0.1+    161002 958  0.4+  0.3+
    161002 H01  0.1+  0.2-    161002 926  0.2-  0.2+    161002 958  0.6+  0.4+
    161002 H01  0.0   0.2-    161002 926  0.1-  0.2+    161002 958  0.1+  0.3+
    161002 H01  0.0   0.2-    161002 926  0.0   0.1+    161003 204  0.5+  0.9+
    161002 I52  0.1-  0.0     161002 926  0.2-  0.3+    161003 204  0.1+  0.1+
    161002 I52  0.1-  0.2+    161002 926  0.1+  0.2+    161003 204  0.8-  0.2-
    
    Ephemeris:
    2016 TM                  a,e,i = 1.14, 0.16, 0                   q = 0.9539
    Date    TT    R. A. (2000) Decl.     Delta      r     Elong.  Phase     V
    2016 09 03    13 48 21.3 -12 44 04   0.07180 0.9632    49.0   127.8    27.1
    ...
    2016 09 18    14 34 51.0 -14 52 46   0.03170 0.9829    45.8   132.9    25.9
    ...
    2016 09 26    16 30 06.3 -16 19 25   0.01284 0.9973    65.4   113.9    22.4
    ...
    2016 10 02    22 04 49.7 -00 38 28   0.01091 1.0096   142.7    36.9    19.1
    2016 10 03    22 42 28.5 +02 06 17   0.01266 1.0117   151.4    28.2    19.2
    2016 10 04    23 10 32.4 +04 06 33   0.01469 1.0139   157.6    22.1    19.3
    ...
    2016 10 10    00 26 29.9 +09 01 54   0.02928 1.0275   170.8     8.9    20.4
    ...
    2016 10 18    00 56 57.1 +10 37 37   0.05117 1.0469   171.3     8.2    21.6
    ...
    2016 11 02    01 17 28.9 +11 26 08   0.09817 1.0861   162.2    16.2    23.4
    
    A. U. Tomatic                (C) Copyright 2016 MPC           M.P.E.C. 2016-T18
    

    Read MPEC 2016-T17 Read MPEC 2016-T19


    MPEC number:

    Enter an MPEC number in one of the following forms:

    • 1997-B01 (the full form)
    • J97B01 (the packed version of the full form)
    • B01 (the abbreviated form)